Regional Weather Roundup
Issued by NWS

Home | Current Version | Previous Version | Graphics & Text | Print | Product List | Glossary On
Versions: 1 2 3 4 5 6 7 8 9 10 11 12 13 14 15 16 17 18 19 20 21 22 23 24 25 26 27 28 29 30 31 32 33 34 35 36 37 38 39 40 41 42 43 44 45 46 47 48 49 50
000
ASUS45 KBOU 111207
RWRCO

WEATHER ROUNDUP FOR COLORADO
NATIONAL WEATHER SERVICE DENVER/BOULDER CO
500 AM MST SUN DEC 11 2016

NOTE: "FAIR" INDICATES FEW OR NO CLOUDS BELOW 12000 FEET WITH NO
SIGNIFICANT WEATHER AND/OR OBSTRUCTIONS TO VISIBILITY.

COZ001>005-013-030-031-111300-
...NORTHWEST COLORADO...

CITY           SKY/WX    TMP DP  RH WIND       PRES   REMARKS
CRAIG          LGT SNOW  32  30  92 W10       29.87S FOG     WCI  24
HAYDEN         CLOUDY    30  27  86 NW5       29.85F VSB 3/4 WCI  25
MEEKER         LGT SNOW  33  32  96 NE6       29.87F FOG     WCI  28
MOUNT WERNER   NOT AVBL
STEAMBOAT SPGS CLOUDY    29  29  99 SW3       29.86R
WALDEN           N/A     28  27  93 SW5       29.81F WCI  23
$$

COZ006>008-011-111300-
...WEST CENTRAL VALLEYS...

CITY           SKY/WX    TMP DP  RH WIND       PRES   REMARKS
GRAND JUNCTION MIX PCPN  30  29  96 E5        29.95R WCI  25
MONTROSE       CLOUDY    41  31  67 CALM      29.88F
EAGLE          LGT RAIN  34  32  92 S7        29.86R WCI  28
RIFLE          CLOUDY    31  30  96 E3        29.91R
DELTA          NOT AVBL
NUCLA          LGT RAIN  43  32  65 SW3       29.97R
$$

COZ017>023-064>068-111300-
...SOUTHWEST COLORADO...

CITY           SKY/WX    TMP DP  RH WIND       PRES   REMARKS
DURANGO        MIX PCPN  31  26  82 E6        29.98F WCI  25
CORTEZ         CLOUDY    36  32  85 S5        30.00R
PAGOSA SPRINGS LGT SNOW  31  29  94 CALM      30.00F
TELLURIDE      LGT SNOW  36  32  87 W14G21    29.99S
WOLF CREEK PAS HVY SNOW  19  19 100 S24G31    30.01F VSB 1/4 WCI   2
$$

COZ009-010-012-014-032>034-037-058>063-111300-
...CENTRAL COLORADO...

CITY           SKY/WX    TMP DP  RH WIND       PRES   REMARKS
ASPEN          LGT SNOW  33  31  92 N13G26    29.84R FOG     WCI  24
BUENA VISTA    LGT RAIN  35  31  86 N3        29.80S
COPPER MTN     NOT AVBL
BERTHOUD PASS  HVY SNOW  14   1  57 NW30G41   29.80R VSB 1/4 WCI  -7
COTTONWOOD PAS LGT SNOW  34  32  93 S5        29.82S WCI  30
GUNNISON       LGT SNOW  28  27  96 CALM      29.88S FOG
KREMMLING      LGT SNOW  34  32  93 E3        29.84F
LEADVILLE      LGT SNOW  29  26  89 N12       29.79F FOG     WCI  19
MONARCH PASS     N/A     25  23  93 SW39G53   29.94F WCI   6
SALIDA         CLOUDY    39  32  75 SW14G24   29.88S
SUNLIGHT       HVY SNOW  21  21 100 W14G26    29.91R VSB 1/4 WCI   8
WILKERSON PASS FOG       27  25  93 SW14G22   29.85S VSB 1/2 WCI  15
$$

COZ069>075-111300-
...SAN LUIS VALLEY/SANGRE DE CRISTO MOUNTAINS...

CITY           SKY/WX    TMP DP  RH WIND       PRES   REMARKS
ALAMOSA        FAIR      28  22  78 SE6       29.88F WCI  22
LA VETA PASS   FAIR      30  23  74 NE15G28   29.91S WCI  19
SAGUACHE       LGT SNOW  32  27  80 N7        29.88F WCI  26
$$

COZ035-036-038>040-111300-
...NORTHERN COLORADO FRONT RANGE...

CITY           SKY/WX    TMP DP  RH WIND       PRES   REMARKS
DENVER INTL AP LGT SNOW  31  28  89 E7        29.79R FOG     WCI  24
DMNS CITY PARK   N/A     33  31  94 NE6G16    29.82R WCI  27
AURORA         NOT AVBL
FRONT RANGE AP FLURRIES  32  32 100 NE5       29.79S WCI  27
ERIE MUNI ARPT LGT SNOW  33  32  96 CALM      29.82R
BOULDER MUN AP MIX PCPN  34  32  93 CALM      29.82R
CENTENNIAL     CLOUDY    34  27  75 E9        29.78R WCI  27
BROOMFIELD     LGT SNOW  34  32  93 N5        29.83R WCI  30
FORT COLLINS   MOCLDY    30  28  93 SE12      29.77S WCI  21
LONGMONT       NOT AVBL
$$

COZ041-046-047-076>085-087-088-111300-
...PIKES PEAK/PALMER DIVIDE AND SOUTHERN FOOTHILLS...

CITY           SKY/WX    TMP DP  RH WIND       PRES   REMARKS
COLO. SPRINGS  MOCLDY    36  25  64 NE13      29.75R
A. F. ACADEMY  FAIR      35  25  68 N6        29.76R WCI  30
SCHRIEVER AFB  NOT AVBL
ELLICOTT       FAIR     N/A N/A N/A NE16G24   29.73F
FALCON         FAIR      31  24  76 N9        29.76S WCI  23
FORT CARSON    NOT AVBL
LIMON          FAIR      29  26  89 N10       29.78R WCI  20
MONUMENT HILL  FAIR      28  25  86 NE7       29.79S WCI  21
TRINIDAD       FAIR      37  15  40 SE3       29.75R
$$

COZ042>045-048>051-090-091-111300-
...NORTHEAST COLORADO...

CITY           SKY/WX    TMP DP  RH WIND       PRES   REMARKS
GREELEY ARPT   CLOUDY    32  26  78 NE6       29.80R WCI  26
AKRON          MOCLDY    29  22  75 N12       29.76R WCI  19
BURLINGTON     FAIR      33  24  69 N8        29.76S WCI  26
WRAY           NOT AVBL
STERLING       CLOUDY    34  28  80 N9        29.78R WCI  26
HOLYOKE        FAIR      36  27  69 N14       29.76R
FORT MORGAN    FLURRIES  33  23  66 N17G24    29.79R WCI  22
$$

COZ086-089-092>099-111300-
...SOUTHEAST COLORADO...

CITY           SKY/WX    TMP DP  RH WIND       PRES   REMARKS
PUEBLO         FAIR      43  23  45 VRB6      29.71R
LA JUNTA       FAIR      39  22  50 NE13G29   29.75R
LAMAR          FAIR      28  20  71 NE8       29.74R WCI  20
SPRINGFIELD      N/A     37  19  48 N20       29.72R
$$



USA.gov is the U.S. government's official web portal to all federal, state and local government web resources and services.